IZ1UQG-2 Weather Reports


Display with metric or nautical units.
time (UTC)temp
F
wind
direction
speed
MPH
gust
MPH
rain 1hr
in
rain 24hr
in
rain mn
in
humidity
%
barometer
mb
20260903222404 72 258 0.0 2.0 0.00 3.02 0.00 69 1017.8
20260903222004 72 247 1.0 2.0 0.00 3.02 0.00 69 1017.8
20260903221604 72 260 1.0 2.0 0.00 3.02 0.00 69 1017.8
20260903220804 73 249 2.0 4.0 0.00 3.02 0.00 68 1017.8
20260903220405 72 233 3.0 5.0 0.00 3.02 0.00 71 1017.9
20260903220006 72 232 3.0 5.0 0.00 3.02 0.00 72 1017.9
20260903215603 72 244 3.0 5.0 0.00 3.02 3.02 72 1017.8
20260903215204 72 254 2.0 5.0 0.00 3.02 3.02 71 1017.9
20260903214803 72 229 2.0 4.0 0.00 3.02 3.02 71 1017.8
20260903214403 72 230 2.0 4.0 0.00 3.02 3.02 71 1017.8
20260903214004 72 227 1.0 4.0 0.00 3.02 3.02 70 1017.7
20260903212803 73 229 1.0 3.0 0.00 3.02 3.02 70 1017.7
20260903212403 73 236 1.0 3.0 0.00 3.02 3.02 70 1017.7
20260903212004 73 233 1.0 3.0 0.00 3.02 3.02 70 1017.7
20260903211604 73 237 1.0 3.0 0.00 3.02 3.02 69 1017.6
20260903211203 74 233 1.0 4.0 0.00 3.02 3.02 69 1017.6
20260903210803 74 235 1.0 4.0 0.00 3.02 3.02 69 1017.6
20260903210404 74 234 1.0 4.0 0.00 3.02 3.02 68 1017.5
20260903210003 74 229 2.0 5.0 0.00 3.02 3.02 68 1017.6
20260903205604 74 227 2.0 5.0 0.00 3.02 3.02 69 1017.7
20260903205205 74 221 2.0 5.0 0.00 3.02 3.02 68 1017.6
20260903204404 74 228 2.0 4.0 0.00 3.02 3.02 68 1017.7
20260903204004 74 222 1.0 3.0 0.00 3.02 3.02 68 1017.6
20260903203604 74 214 1.0 3.0 0.00 3.02 3.02 67 1017.5
20260903203203 75 216 1.0 3.0 0.00 3.02 3.02 66 1017.4
20260903202804 75 228 1.0 3.0 0.00 3.02 3.02 66 1017.4
20260903201603 76 233 1.0 3.0 0.00 3.02 3.02 63 1017.3
20260903201204 75 246 1.0 3.0 0.00 3.02 3.02 64 1017.3
20260903200804 76 268 1.0 2.0 0.00 3.02 3.02 65 1017.2
20260903200404 76 240 1.0 3.0 0.00 3.02 3.02 64 1017.2
20260903200003 75 229 1.0 4.0 0.00 3.02 3.02 65 1017.2
20260903195604 75 224 2.0 4.0 0.00 3.02 3.02 66 1017.2
20260903195203 75 223 2.0 4.0 0.00 3.02 3.02 65 1017.2
20260903194804 76 217 2.0 4.0 0.00 3.02 3.02 65 1017.2
20260903194403 76 218 2.0 4.0 0.00 3.02 3.02 64 1017.0
20260903194004 76 222 3.0 6.0 0.00 3.02 3.02 64 1017.0
20260903193603 76 230 2.0 6.0 0.00 3.02 3.02 65 1017.0
20260903193204 76 250 2.0 6.0 0.00 3.02 3.02 64 1017.0
20260903192803 76 274 1.0 6.0 0.00 3.02 3.02 64 1016.9
20260903192403 77 255 2.0 6.0 0.00 3.02 3.02 63 1016.9
20260903192004 76 260 1.0 6.0 0.00 3.02 3.02 64 1016.9
20260903191605 76 261 1.0 5.0 0.00 3.02 3.02 65 1016.8
20260903190405 76 228 2.0 5.0 0.00 3.02 3.02 64 1016.6
20260903185605 76 292 2.0 4.0 0.00 3.02 3.02 64 1016.6
20260903185204 76 278 2.0 5.0 0.00 3.02 3.02 64 1016.5
20260903184404 77 227 4.0 6.0 0.00 3.02 3.02 63 1016.3
20260903184005 77 231 3.0 6.0 0.00 3.02 3.02 64 1016.2
20260903183604 77 244 2.0 6.0 0.00 3.02 3.02 63 1016.2
20260903183205 77 247 3.0 6.0 0.00 3.02 3.02 63 1016.2
20260903182805 77 251 3.0 6.0 0.00 3.02 3.02 63 1016.1
20260903182404 78 250 3.0 6.0 0.00 3.02 3.02 62 1016.0
20260903182005 78 241 3.0 6.0 1.00 3.02 3.02 62 1016.1
20260903181604 79 228 4.0 8.0 1.00 3.02 3.02 61 1015.9
20260903180805 79 223 4.0 8.0 1.01 3.02 3.02 60 1015.8
20260903180404 79 222 3.0 6.0 1.01 3.02 3.02 60 1015.6
20260903180005 79 218 2.0 5.0 1.01 3.02 3.02 60 1015.6
20260903175204 80 203 2.0 5.0 1.01 3.02 3.02 58 1015.7
20260903174805 80 201 3.0 7.0 1.01 3.02 3.02 58 1015.6
20260903174405 80 211 3.0 7.0 1.01 3.02 3.02 58 1015.6
20260903174005 80 217 3.0 6.0 1.01 3.02 3.02 58 1015.6
20260903173605 80 220 3.0 6.0 1.01 3.02 3.02 57 1015.4
20260903173205 81 224 3.0 6.0 1.01 3.02 3.02 57 1015.4
20260903172804 81 232 2.0 5.0 1.01 3.02 3.02 58 1015.3
20260903172406 81 232 0.0 5.0 1.01 3.02 3.02 56 1015.4
20260903172005 81 217 1.0 4.0 0.01 2.02 2.02 61 1015.4
20260903171605 81 209 2.0 5.0 0.01 2.02 2.02 60 1015.5
20260903171205 82 208 2.0 5.0 0.00 2.02 2.02 53 1015.3
20260903170804 82 209 2.0 4.0 0.00 2.02 2.02 54 1015.4
20260903170004 82 226 2.0 4.0 0.00 2.02 2.02 53 1015.5
20260903165605 83 225 1.0 4.0 0.00 2.02 2.02 53 1015.3
20260903165205 83 223 1.0 3.0 0.00 2.02 2.02 52 1015.3
20260903164806 83 250 1.0 3.0 0.00 2.02 2.02 52 1015.3
20260903164004 82 310 1.0 4.0 0.00 2.02 2.02 50 1015.3
20260903163605 82 314 1.0 4.0 0.00 2.02 2.02 51 1015.2
20260903163205 83 306 1.0 4.0 0.00 2.02 2.02 50 1015.2
20260903162806 83 306 1.0 4.0 0.00 2.02 2.02 50 1015.2
20260903162404 83 315 2.0 4.0 0.00 2.02 2.02 50 1015.2
20260903162005 83 319 3.0 4.0 0.00 2.02 2.02 49 1015.2
20260903161604 83 313 2.0 4.0 0.00 2.02 2.02 48 1015.2
20260903160804 84 322 3.0 5.0 0.00 2.02 2.02 47 1015.1
20260903160405 84 322 4.0 6.0 0.00 2.02 2.02 47 1015.2
20260903160005 85 313 3.0 6.0 0.00 2.02 2.02 46 1015.0
20260903155604 86 293 2.0 6.0 0.00 2.02 2.02 44 1015.1
20260903155205 87 132 1.0 4.0 0.00 2.02 2.02 43 1015.0
20260903154804 87 103 2.0 6.0 0.00 2.02 2.02 42 1015.0
20260903154405 86 112 3.0 6.0 0.00 2.02 2.02 42 1015.1
20260903154004 87 100 3.0 8.0 0.00 2.02 2.02 41 1015.0
20260903153605 87 94 3.0 8.0 0.00 2.02 2.02 42 1015.1
20260903153204 86 90 4.0 8.0 0.00 2.02 2.02 41 1015.1
20260903152805 86 90 3.0 6.0 0.00 2.02 2.02 41 1015.2
20260903152005 87 84 4.0 8.0 0.00 2.02 2.02 42 1015.1
20260903151205 87 127 3.0 8.0 0.00 2.02 2.02 41 1015.3
20260903150805 86 145 2.0 5.0 0.00 2.02 2.02 43 1015.2
20260903150405 86 103 2.0 7.0 0.00 2.02 2.02 43 1015.1
20260903150005 87 84 3.0 8.0 0.00 2.02 2.02 43 1015.2
20260903145605 86 95 4.0 9.0 0.00 2.02 2.02 42 1015.3
20260903145205 86 96 4.0 9.0 0.00 2.02 2.02 43 1015.3
20260903144804 86 94 3.0 9.0 0.00 2.02 2.02 43 1015.4
20260903144005 86 101 3.0 7.0 0.00 2.02 2.02 43 1015.2
20260903143205 87 90 3.0 7.0 0.00 2.02 2.02 42 1015.3
20260903142804 86 90 4.0 8.0 0.00 2.02 2.02 42 1015.4
20260903142405 86 88 4.0 8.0 0.00 2.02 2.02 43 1015.5
20260903142005 86 93 4.0 8.0 0.00 2.02 2.02 43 1015.5
20260903141605 86 100 3.0 8.0 0.00 2.02 2.02 42 1015.4
20260903141205 86 98 3.0 8.0 0.00 2.02 2.02 41 1015.4
20260903140804 86 96 3.0 7.0 0.00 2.02 2.02 41 1015.6
20260903140005 86 90 3.0 7.0 0.00 2.02 2.02 40 1015.6
20260903135604 87 75 2.0 7.0 0.00 2.02 2.02 40 1015.6
20260903135204 87 111 3.0 7.0 0.00 2.02 2.02 39 1015.7
20260903134805 87 120 3.0 7.0 0.00 2.02 2.02 40 1015.7
20260903134005 86 91 3.0 7.0 0.00 2.02 2.02 40 1015.9
20260903133605 86 102 3.0 7.0 0.00 2.02 2.02 40 1016.0
20260903133206 86 98 3.0 8.0 0.00 2.02 2.02 40 1016.0
20260903132804 85 97 4.0 8.0 0.00 2.02 2.02 41 1016.0
20260903132005 85 97 4.0 8.0 0.00 2.02 2.02 42 1016.2
20260903131204 85 128 3.0 8.0 0.00 2.02 2.02 41 1016.1
20260903130806 86 100 3.0 8.0 0.00 2.02 2.02 41 1016.1
20260903130005 85 95 4.0 11.0 0.00 2.02 2.02 41 1016.3
20260903125604 85 98 4.0 11.0 0.00 2.02 2.02 41 1016.3
20260903125205 85 97 4.0 11.0 0.00 2.02 2.02 40 1016.4
20260903124405 86 92 4.0 9.0 0.00 2.02 2.02 39 1016.5
20260903124005 85 91 5.0 10.0 0.00 2.02 2.02 39 1016.5
20260903123205 85 90 6.0 11.0 0.00 2.02 2.02 37 1016.7
20260903122804 85 90 6.0 10.0 0.00 2.02 2.02 36 1016.7
20260903122404 85 85 6.0 10.0 0.00 2.02 2.02 36 1016.8
20260903121605 85 98 4.0 9.0 2.02 2.02 2.02 37 1016.7
20260903120805 85 88 4.0 9.0 2.02 2.02 2.02 38 1016.6
20260903120005 85 95 4.0 9.0 2.02 2.02 2.02 34 1016.7
20260903115604 85 95 4.0 9.0 2.02 2.02 2.02 36 1016.8
20260903115205 85 95 5.0 9.0 2.02 2.02 2.02 36 1016.8
20260903114805 85 95 5.0 9.0 2.02 2.02 2.02 36 1016.9
20260903114405 85 88 4.0 9.0 2.02 2.02 2.02 36 1016.9
20260903113604 85 98 4.0 9.0 2.02 2.02 2.02 35 1016.8
20260903113205 84 102 4.0 9.0 2.02 2.02 2.02 37 1017.0
20260903112804 84 102 2.0 8.0 2.02 2.02 2.02 36 1017.1
20260903112405 84 82 3.0 8.0 2.02 2.02 2.02 36 1017.2
20260903112005 84 83 4.0 8.0 0.01 0.01 0.01 39 1017.2
20260903111604 83 86 4.0 8.0 0.00 0.00 0.00 35 1017.2
20260903111205 83 93 4.0 9.0 0.00 0.00 0.00 36 1017.3
20260903110804 83 102 3.0 9.0 0.00 0.00 0.00 37 1017.3
20260903110405 83 99 4.0 9.0 0.00 0.00 0.00 38 1017.2
20260903110004 83 104 4.0 8.0 0.00 0.00 0.00 38 1017.3
20260903105605 83 98 4.0 9.0 0.00 0.00 0.00 38 1017.4
20260903104806 82 96 4.0 9.0 0.00 0.00 0.00 41 1017.4
20260903104404 83 94 3.0 8.0 0.00 0.00 0.00 41 1017.5
20260903103604 83 99 4.0 9.0 0.00 0.00 0.00 43 1017.5
20260903103204 82 94 5.0 9.0 0.00 0.00 0.00 43 1017.6
20260903102804 82 95 5.0 9.0 0.00 0.00 0.00 43 1017.7
20260903102405 82 90 4.0 7.0 0.00 0.00 0.00 43 1017.7
20260903101604 82 85 2.0 6.0 0.00 0.00 0.00 43 1017.8
20260903101206 82 94 2.0 5.0 0.00 0.00 0.00 44 1018.1
20260903100805 81 94 2.0 6.0 0.00 0.00 0.00 45 1018.2
20260903100005 81 111 2.0 6.0 0.00 0.00 0.00 44 1018.2
20260903095604 80 162 1.0 4.0 0.00 0.00 0.00 45 1018.3
20260903095204 81 169 1.0 4.0 0.00 0.00 0.00 44 1018.3
20260903094805 80 178 1.0 3.0 0.00 0.00 0.00 46 1018.3
20260903094405 80 56 1.0 3.0 0.00 0.00 0.00 48 1018.4
20260903094005 79 80 2.0 4.0 0.00 0.00 0.00 49 1018.4
20260903093604 78 76 2.0 4.0 0.00 0.00 0.00 49 1018.4
20260903093205 79 62 2.0 4.0 0.00 0.00 0.00 49 1018.5
20260903092805 78 58 2.0 4.0 0.00 0.00 0.00 49 1018.5
20260903092404 78 73 2.0 4.0 0.00 0.00 0.00 48 1018.3
20260903092005 79 103 2.0 4.0 0.00 0.00 0.00 47 1018.2
20260903091604 79 137 1.0 4.0 0.00 0.00 0.00 47 1018.2
20260903091204 79 353 1.0 3.0 0.00 0.00 0.00 46 1018.2
20260903090804 79 353 1.0 3.0 0.00 0.00 0.00 47 1018.3
20260903090005 78 224 1.0 3.0 0.00 0.00 0.00 46 1018.3
20260903085605 77 215 1.0 3.0 0.00 0.00 0.00 46 1018.4
20260903085204 78 301 1.0 3.0 0.00 0.00 0.00 46 1018.5
20260903084804 77 331 1.0 4.0 0.00 0.00 0.00 47 1018.6
20260903084405 76 339 2.0 4.0 0.00 0.00 0.00 46 1018.7
20260903084005 76 347 2.0 5.0 0.00 0.00 0.00 48 1018.6
20260903083605 75 354 2.0 6.0 0.00 0.00 0.00 48 1018.7
20260903082805 75 350 2.0 4.0 0.00 0.00 0.00 49 1018.7
20260903082405 75 349 2.0 4.0 0.00 0.00 0.00 49 1018.7
20260903082005 75 352 3.0 4.0 0.00 0.00 0.00 51 1018.6
20260903081605 74 356 2.0 4.0 0.00 0.00 0.00 50 1018.6
20260903080804 74 349 3.0 6.0 0.00 0.00 0.00 52 1018.8
20260903080405 73 346 4.0 6.0 0.00 0.00 0.00 52 1018.8
20260903080006 73 347 4.0 6.0 0.00 0.00 0.00 51 1018.7
20260903075605 73 346 3.0 6.0 0.00 0.00 0.00 52 1018.7
20260903074805 72 341 4.0 6.0 0.00 0.00 0.00 55 1018.7
20260903074004 72 343 3.0 6.0 0.00 0.00 0.00 54 1018.7
20260903073605 72 343 3.0 5.0 0.00 0.00 0.00 54 1018.7
20260903073204 71 344 3.0 6.0 0.00 0.00 0.00 54 1018.7
20260903072805 71 346 3.0 6.0 0.00 0.00 0.00 56 1018.8
20260903072404 71 350 3.0 6.0 0.00 0.00 0.00 54 1018.7
20260903072005 71 348 3.0 6.0 0.00 0.00 0.00 55 1018.7
20260903071204 71 341 3.0 5.0 0.00 0.00 0.00 55 1018.6
20260903070805 70 339 1.0 5.0 0.00 0.00 0.00 55 1018.6
20260903070405 71 354 0.0 2.0 0.00 0.00 0.00 56 1018.7
20260903070005 71 340 1.0 4.0 0.00 0.00 0.00 57 1018.7
20260903064405 69 235 1.0 4.0 0.00 0.00 0.00 62 1018.8
20260903064004 69 231 2.0 5.0 0.00 0.00 0.00 64 1018.8
20260903063604 68 243 2.0 5.0 0.00 0.00 0.00 64 1018.9
20260903063204 69 333 1.0 5.0 0.00 0.00 0.00 62 1018.7
20260903062805 75 2 1.0 1.0 0.00 0.00 0.00 63 1018.5
20260903062405 75 2 1.0 1.0 0.00 0.00 0.00 63 1018.4
20260903061605 75 2 1.0 1.0 0.00 0.00 0.00 63 1018.4
20260903061204 75 2 1.0 1.0 0.00 0.00 0.00 63 1018.4
20260903060404 75 2 1.0 1.0 0.00 0.00 0.00 63 1018.3
20260903060005 75 2 1.0 1.0 0.00 0.00 0.00 63 1018.4
20260903055605 75 2 1.0 1.0 0.00 0.00 0.00 63 1018.4
20260903055205 75 2 1.0 1.0 0.00 0.00 0.00 63 1018.3
20260903054804 75 2 1.0 1.0 0.00 0.00 0.00 63 1018.3
20260903053604 75 2 1.0 1.0 0.00 0.00 0.00 63 1018.1
20260903053204 75 2 1.0 1.0 0.00 0.00 0.00 63 1017.9
20260903052805 75 2 1.0 1.0 0.00 0.00 0.00 63 1017.9
20260903052405 75 2 1.0 1.0 0.00 0.00 0.00 63 1017.9
20260903051604 75 2 1.0 1.0 0.00 0.00 0.00 63 1017.7
20260903051204 75 2 1.0 1.0 0.00 0.00 0.00 63 1017.7
20260903050805 75 2 1.0 1.0 0.00 0.00 0.00 63 1017.6
20260903050405 75 2 1.0 1.0 0.00 0.00 0.00 63 1017.6
20260903045605 75 2 1.0 1.0 0.00 0.00 0.00 63 1017.5
20260903045205 75 2 1.0 1.0 0.00 0.00 0.00 63 1017.5
20260903044804 75 2 1.0 1.0 0.00 0.00 0.00 63 1017.4
20260903044404 75 2 1.0 1.0 0.00 0.00 0.00 63 1017.3
20260903043605 75 2 1.0 1.0 0.00 0.00 0.00 63 1017.3
20260903042804 75 2 1.0 1.0 0.00 0.00 0.00 63 1017.2
20260903042405 75 2 1.0 1.0 0.00 0.00 0.00 63 1017.1
20260903042005 75 2 1.0 1.0 0.00 0.00 0.00 63 1017.2
20260903041604 75 2 1.0 1.0 0.00 0.00 0.00 63 1017.1
20260903041204 75 2 1.0 1.0 0.00 0.00 0.00 63 1017.1
20260903040804 75 2 1.0 1.0 0.00 0.00 0.00 63 1017.0
20260903040405 75 2 1.0 1.0 0.00 0.00 0.00 63 1017.1
20260903040005 75 2 1.0 1.0 0.00 0.00 0.00 63 1017.1
20260903035604 75 2 1.0 1.0 0.00 0.00 0.00 63 1017.1
20260903035204 75 2 1.0 1.0 0.00 0.00 0.00 63 1017.0
20260903034804 75 2 1.0 1.0 0.00 0.00 0.00 63 1017.0
20260903034405 75 2 1.0 1.0 0.00 1.00 0.00 63 1017.0
20260903034004 75 2 1.0 1.0 0.00 1.00 0.00 63 1016.9
20260903033604 75 2 1.0 1.0 0.00 1.00 0.00 63 1017.0
20260903032804 75 2 1.0 1.0 0.00 1.00 0.00 63 1017.0
20260903032405 75 2 1.0 1.0 0.00 1.00 0.00 63 1016.9
20260903032005 75 2 1.0 1.0 0.00 1.00 0.00 63 1017.0
20260903031206 75 2 1.0 1.0 0.00 1.00 0.00 63 1017.0
20260903030805 75 2 1.0 1.0 0.00 1.00 0.00 63 1017.0
20260903030405 75 2 1.0 1.0 0.00 1.00 0.00 63 1017.0
20260903030005 75 2 1.0 1.0 0.00 1.00 0.00 63 1017.0
20260903025604 75 2 1.0 1.0 0.00 1.00 0.00 63 1016.9
20260903024804 75 2 1.0 1.0 0.00 1.00 0.00 63 1016.8
20260903024404 75 2 1.0 1.0 0.00 1.00 0.00 63 1016.8
20260903024005 75 2 1.0 1.0 0.00 1.00 0.00 63 1016.9
20260903023604 75 2 1.0 1.0 0.00 1.00 0.00 63 1016.9
20260903023205 75 2 1.0 1.0 0.00 1.00 0.00 63 1016.9
20260903022804 75 2 1.0 1.0 0.00 1.00 0.00 63 1016.9
20260903022404 75 2 1.0 1.0 0.00 1.00 0.00 63 1017.0
20260903022005 75 2 1.0 1.0 0.00 1.00 0.00 63 1017.0
20260903021605 75 2 1.0 1.0 0.00 1.00 0.00 63 1017.1
20260903021204 75 2 1.0 1.0 0.00 1.00 0.00 63 1017.0
20260903020805 75 2 1.0 1.0 0.00 1.00 0.00 63 1017.0
20260903020405 75 2 1.0 1.0 0.00 1.00 0.00 63 1017.1
20260903020005 75 2 1.0 1.0 0.00 1.00 0.00 63 1017.1
20260903015604 75 2 1.0 1.0 0.00 1.00 0.00 63 1017.2
20260903015204 75 2 1.0 1.0 0.00 1.00 0.00 63 1017.1
20260903014805 75 2 1.0 1.0 0.00 1.00 0.00 63 1017.1
20260903014404 75 2 1.0 1.0 0.00 1.00 0.00 63 1017.0
20260903014005 75 2 1.0 1.0 0.00 1.00 0.00 63 1017.1
20260903013604 75 2 1.0 1.0 0.00 1.00 0.00 63 1017.0
20260903013205 75 2 1.0 1.0 0.00 1.00 0.00 63 1017.0
20260903012805 75 2 1.0 1.0 0.00 1.00 0.00 63 1017.1
20260903012405 75 2 1.0 1.0 0.00 1.00 0.00 63 1017.1
20260903012004 75 2 1.0 1.0 0.00 1.00 0.00 63 1017.0
20260903011604 75 2 1.0 1.0 0.00 1.00 0.00 63 1017.1
20260903011204 75 2 1.0 1.0 0.00 1.00 0.00 63 1017.1
20260903010804 75 2 1.0 1.0 0.00 1.00 0.00 63 1017.1
20260903010404 75 2 1.0 1.0 0.00 1.00 0.00 63 1017.1
20260903005204 75 2 1.0 1.0 0.00 1.00 0.00 63 1017.0
20260903004805 75 2 1.0 1.0 0.00 1.01 0.00 63 1017.1
20260903004404 75 2 1.0 1.0 0.00 1.01 0.00 63 1017.1
20260903004004 75 2 1.0 1.0 0.00 1.01 0.00 63 1017.1
20260903003605 75 2 1.0 1.0 0.00 1.01 0.00 63 1017.0
20260903003204 75 2 1.0 1.0 0.00 1.01 0.00 63 1017.1
20260903002405 75 2 1.0 1.0 0.00 1.01 0.00 63 1017.1
20260903002005 75 2 1.0 1.0 0.00 1.01 0.00 63 1017.0
20260903001604 75 2 1.0 1.0 0.00 1.01 0.00 63 1017.1
20260903000405 75 2 1.0 1.0 0.00 1.01 0.00 63 1017.1
20260903000005 75 2 1.0 1.0 0.00 1.01 0.00 63 1017.2
20260902235604 75 2 1.0 1.0 0.00 1.01 0.00 63 1017.2
20260902234805 75 2 1.0 1.0 0.00 1.01 0.00 63 1017.3
20260902234405 75 2 1.0 1.0 0.00 1.01 0.00 63 1017.1
20260902233605 75 2 1.0 1.0 0.00 1.01 0.00 63 1017.1
20260902233205 75 2 1.0 1.0 0.00 1.01 0.00 63 1017.1
20260902232805 75 2 1.0 1.0 0.00 1.01 0.00 63 1016.9
20260902232405 75 2 1.0 1.0 0.00 1.01 0.00 63 1017.0
20260902232004 75 2 1.0 1.0 0.00 1.01 0.00 63 1016.9
20260902231604 75 2 1.0 1.0 0.00 1.01 0.00 63 1017.0
20260902230804 75 2 1.0 1.0 0.00 1.01 0.00 63 1017.0
20260902230405 75 2 1.0 1.0 0.00 1.01 0.00 63 1017.0
20260902225605 75 2 1.0 1.0 0.00 1.01 0.00 63 1016.9
20260902224804 75 2 1.0 1.0 0.00 1.01 0.00 63 1016.9
20260902224404 75 2 1.0 1.0 0.00 1.01 0.00 63 1016.9
20260902224005 75 2 1.0 1.0 0.00 1.01 0.00 63 1017.0
20260902223604 75 2 1.0 1.0 0.00 1.01 0.00 63 1016.9
20260902223205 75 2 1.0 1.0 0.00 1.01 0.00 63 1016.9
20260902222804 75 2 1.0 1.0 0.00 1.01 0.00 63 1016.9